Location: Dealu Mare
(46.0500°N, 22.8167°E)
Time: 09:23:24
(UTC+00:00)

SJ-12 - Pass Details

Date: 15 January 2026
Orbit: 515 x 525 km, 97.8° (Epoch: 10 February)

Event Time Altitude Azimuth Distance (km) Brightness Sun altitude
Rises 04:58:26 0° 16° (NNE) 2,671 7.3 -11.7°
Reaches altitude 10° 05:00:35 10° 21° (NNE) 1,776 6.4 -11.3°
Maximum altitude 05:04:22 58° 101° (E) 614 4.4 -10.7°
Drops below altitude 10° 05:08:06 10° 181° (S) 1,754 6.6 -10.1°
Sets 05:10:13 0° 185° (S) 2,635 7.5 -9.7°
